Content
SEND FEEDBACK

Daily
Averages
Monthly
Summary
United States of America

CHESTERFIELD, MISSOURI


Home > North America > United States > Missouri
Elevation: 559 feet     Latitude: 38 41N     Longitude: 090 31W

WEATHER
 
SELECT A DAY
Number of Records: 203,490;   Date Range: 1/1/95 - 8/12/14
 
SHARE

PRINT THIS DATA

[ ← Previous Day ]
WEATHER ALMANAC - JANUARY 16, 2013
[ Next Day → ]
[ °C ]   °F
Weather ElementAverageHighLow
Temperature32.8 °F43 °F (2:51 pm)21 °F (3:51 am)
Dewpoint18.2 °F23 °F (11:51 pm)15.1 °F (10:51 am)
Humidity57.2 %81 % (3:51 am)37 % (2:51 pm)
Barometer30.14 in30.19 in (1:51 am)30.06 in (2:51 pm)
Wind Speed7.6 mph16.1 mph (2:51 pm)
Weather ElementAverage
Visibility9.5 mi
Wind DirectionWSW (241.4 °)

Weather ElementTotal
Precipitation---
Heating Degree Days33 (Base 65)
Averaged from 21 records on January 16, 2013
WEATHER CONDITIONS BREAKOUT
WIND DIRECTION BREAKOUT
WEATHER BY HOUR - JANUARY 16, 2013
[ °C ]   °F
Local TimeTemperatureDewpointHumidityBarometerVisibilityWind DirectionWind SpeedGust SpeedPrecipitationEventsConditions
1:51 AM23.0 °F17.1 °F78 %30.19 in9.0 miCalmPartly Cloudy
3:51 AM21.0 °F16.0 °F81 %30.18 in9.0 miWNW (300°)3.5 mphClear
4:51 AM21.0 °F16.0 °F81 %30.16 in8.0 miWest (280°)4.6 mphClear
6:51 AM21.0 °F16.0 °F81 %30.17 in8.0 miWSW (250°)4.6 mphPartly Cloudy
7:51 AM23.0 °F16.0 °F74 %30.18 in8.0 miWest (260°)4.6 mphScattered Clouds
8:51 AM26.1 °F18.0 °F71 %30.17 in8.0 miSW (220°)8.1 mphScattered Clouds
9:51 AM30.0 °F16.0 °F56 %30.17 inWest (270°)12.7 mphPartly Cloudy
10:51 AM34.0 °F15.1 °F46 %30.14 in9.0 miSW (220°)10.4 mphPartly Cloudy
11:51 AM37.9 °F15.1 °F39 %30.11 in10.0 miSW (220°)6.9 mphPartly Cloudy
12:51 PM39.9 °F16.0 °F38 %30.09 in10.0 miWSW (250°)11.5 mphPartly Cloudy
1:51 PM41.0 °F18.0 °F40 %30.08 in10.0 miWSW (250°)12.7 mphPartly Cloudy
2:51 PM43.0 °F18.0 °F37 %30.06 in10.0 miWSW (250°)16.1 mphPartly Cloudy
3:51 PM42.1 °F19.0 °F40 %30.08 in10.0 miWSW (250°)13.8 mphPartly Cloudy
4:51 PM39.9 °F19.0 °F43 %30.09 in10.0 miWSW (240°)11.5 mphScattered Clouds
5:51 PM37.0 °F19.9 °F50 %30.12 in10.0 miWNW (290°)6.9 mphScattered Clouds
6:51 PM37.0 °F19.9 °F50 %30.14 in10.0 miWSW (250°)3.5 mphScattered Clouds
7:51 PM36.0 °F19.9 °F52 %30.14 in10.0 miWSW (240°)4.6 mphScattered Clouds
8:51 PM34.0 °F21.0 °F59 %30.15 in10.0 miWest (260°)3.5 mphPartly Cloudy
9:51 PM33.1 °F21.9 °F64 %30.14 in10.0 miWSW (240°)6.9 mphPartly Cloudy
10:51 PM34.0 °F21.9 °F61 %30.14 in10.0 miWest (270°)8.1 mphClear
11:51 PM35.1 °F23.0 °F61 %30.15 in10.0 miWest (260°)5.8 mphMostly Cloudy
Hourly data recorded from KSTL, located miles away from Chesterfield, Missouri







STORIES FROM OUR PARTNERS